Flight Track Log - Related Links

Times and Time Zones

All times are in EST time to prevent confusion due to time zone crossing. See the UAL3776 flight status page for this flight to view local times or setup timezone preferences in your user account.

Time Position Orientation Groundspeed Altitude Reporting Facility
EST Latitude Longitude Course Direction KTS MPH feet Rate Location/Type
Sat 07:09:38 PM 42.0167 -87.9167 77° East 181 208 3,100  Level Chicago TRACON
Sat 07:10:38 PM 42.0667 -87.8667 37° Northeast 233 268 4,900 992 Climbing Chicago TRACON
Sat 07:11:39 PM 42.1167 -87.8000 45° Northeast 266 306 5,100 1,409 Climbing Chicago TRACON
Sat 07:12:50 PM 42.1825 -87.7478 30° Northeast 265 305 8,000 2,318 Climbing Chicago Center
Sat 07:13:51 PM 42.1911 -87.6375 84° East 307 353 10,200 2,049 Climbing Chicago Center
Sat 07:14:53 PM 42.1736 -87.5125 101° East 334 384 12,200 1,707 Climbing Chicago Center
Sat 07:15:00 PM 42.1092 -86.9783 77° East  Level FlightAware Approximate
Sat 07:15:54 PM 42.1506 -87.3422 100° East 386 444 13,700  Level Chicago Center
Sat 07:16:55 PM 42.1500 -87.1850 90° East 423 487 15,300 1,475 Climbing Chicago Center
Sat 07:17:56 PM 42.1564 -87.0167 87° East 439 505 16,700 1,171 Climbing Chicago Center
Sat 07:18:58 PM 42.1611 -86.8711 87° East 456 525 17,700 1,366 Climbing Chicago Center
Sat 07:19:59 PM 42.1694 -86.6531 87° East 483 556 19,500 1,574 Climbing Chicago Center
Sat 07:21:00 PM 42.1750 -86.4683 88° East 492 566 20,900 1,475 Climbing Chicago Center
Sat 07:22:01 PM 42.1803 -86.2803 88° East 501 577 22,500 1,707 Climbing Chicago Center
Sat 07:23:03 PM 42.1867 -86.0925 87° East 500 575 24,400 1,512 Climbing Chicago Center
Sat 07:24:04 PM 42.1897 -85.9214 89° East 498 573 25,600 1,131 Climbing Chicago Center
Sat 07:25:05 PM 42.1953 -85.7303 88° East 508 585 26,700 1,131 Climbing Chicago Center
Sat 07:26:06 PM 42.2119 -85.4936 84° East 526 605 27,900 984 Climbing Chicago Center
Sat 07:27:07 PM 42.2261 -85.2956 84° East 532 612 28,700 780 Climbing Chicago Center
Sat 07:28:09 PM 42.2394 -85.0933 85° East 541 623 29,500 780 Climbing Chicago Center
Sat 07:29:10 PM 42.2536 -84.8881 85° East 551 634 30,300 829 Climbing Chicago Center
Sat 07:30:12 PM 42.2678 -84.6800 85° East 556 640 31,200 1,131 Climbing Chicago Center
Sat 07:31:12 PM 42.2806 -84.4725 85° East 557 641 32,600 893 Climbing Chicago Center
Sat 07:32:13 PM 42.2936 -84.2681 85° East 550 633 33,000 207 Climbing Chicago Center
Sat 07:33:08 PM 42.3042 -84.0669 86° East 572 658 33,000  Level Cleveland Center
Sat 07:34:08 PM 42.3183 -83.8450 85° East 591 680 33,000  Level Cleveland Center
Sat 07:35:09 PM 42.3311 -83.6161 86° East 603 694 33,000  Level Cleveland Center
Sat 07:36:10 PM 42.3442 -83.3753 86° East 610 702 33,000  Level Cleveland Center
Sat 07:37:11 PM 42.3567 -83.1436 86° East 608 700 33,000  Level Cleveland Center
Sat 07:38:12 PM 42.3686 -82.9158 86° East 608 700 33,000 -344 Level Cleveland Center
Sat 07:39:13 PM 42.3800 -82.6869 86° East 610 702 32,300 -893 Descending Cleveland Center
Sat 07:40:13 PM 42.3897 -82.4617 87° East 603 694 31,200 -645 Descending Cleveland Center
Sat 07:41:14 PM 42.4000 -82.2419 86° East 590 679 31,000 -98 Descending Cleveland Center
Sat 07:42:15 PM 42.4089 -82.0078 87° East 592 681 31,000  Level Cleveland Center
Sat 07:43:16 PM 42.4194 -81.7822 86° East 594 684 31,000  Level Cleveland Center
Sat 07:44:17 PM 42.4267 -81.5561 87° East 595 685 31,000 -198 Level Cleveland Center
Sat 07:45:17 PM 42.4350 -81.3306 87° East 593 682 30,600 -942 Descending Cleveland Center
Sat 07:46:18 PM 42.4436 -81.1033 87° East 597 687 29,100 -885 Descending Cleveland Center
Sat 07:47:19 PM 42.4506 -80.8828 87° East 584 672 28,800 -1,033 Descending Cleveland Center
Sat 07:48:20 PM 42.4578 -80.6656 87° East 575 662 27,000 -885 Descending Cleveland Center
Sat 07:49:21 PM 42.4644 -80.4522 88° East 563 648 27,000  Level Cleveland Center
Sat 07:50:21 PM 42.5042 -80.2419 76° East 581 669 27,000  Level Cleveland Center
Sat 07:51:22 PM 42.5608 -80.0364 69° East 577 664 27,000 -1,131 Level Cleveland Center
Sat 07:52:23 PM 42.6214 -79.8144 70° East 573 659 24,700 -2,410 Descending Cleveland Center
Sat 07:53:24 PM 42.6728 -79.6189 70° East 554 638 22,100 -2,607 Descending Cleveland Center
Sat 07:54:25 PM 42.7239 -79.4278 70° East 540 621 19,400 -2,628 Descending Cleveland Center
Sat 07:55:25 PM 42.7714 -79.2517 70° East 503 579 16,800 -2,628 Descending Cleveland Center
Sat 07:56:26 PM 42.8150 -79.0831 71° East 476 548 14,100 -2,607 Descending Cleveland Center
Sat 07:57:27 PM 42.8581 -78.9156 71° East 471 542 11,500 -1,691 Descending Cleveland Center
Sat 07:58:16 PM 42.9000 -78.7667 69° East 443 510 11,000 -275 Descending Buffalo TRACON
Sat 07:59:16 PM 42.9333 -78.6167 73° East 449 517 11,000 -350 Level Buffalo TRACON
Sat 08:00:16 PM 42.9667 -78.4667 73° East 364 419 10,300 -1,105 Descending Buffalo TRACON
Sat 08:01:10 PM 42.9833 -78.3667 77° East 328 377 8,900 -1,579 Descending Buffalo TRACON
Sat 08:02:10 PM 43.0167 -78.2333 71° East 338 389 7,300 -950 Descending Buffalo TRACON
Sat 08:03:10 PM 43.0500 -78.1167 69° East 323 372 7,000 -250 Descending Buffalo TRACON
Sat 08:04:10 PM 43.1000 -78.0167 56° Northeast 335 386 6,800 -650 Descending Buffalo TRACON
Sat 08:05:10 PM 43.1500 -77.9167 56° Northeast 314 361 5,700 -1,250 Descending Buffalo TRACON
Sat 08:06:10 PM 43.1833 -77.8167 65° Northeast 308 354 4,300 -1,476 Descending Buffalo TRACON
Sat 08:07:16 PM 43.2333 -77.7000 60° Northeast 318 366 2,600 -781 Descending Buffalo TRACON
Sat 08:08:36 PM 43.2392 -77.6128 85° East 230 265 2,400 -86 Descending Cleveland Center
Sat 08:09:36 PM 43.1983 -77.6083 175° South 133 153 2,400 -298 Level Cleveland Center
Sat 08:10:37 PM 43.1750 -77.6322 217° Southwest 106 122 1,800 -590 Descending Cleveland Center
Sat 08:11:38 PM 43.1503 -77.6511 209° Southwest 103 119 1,200 -639 Descending Cleveland Center
Sat 08:12:39 PM 43.1228 -77.6742 211° Southwest 109 125 500 -689 Descending Cleveland Center

Login

Don't have an account? Register now (free) for customized features, flight alerts, and more!